星链-1139 (STARLINK-1139 )

导读

STARLINK-1139是美国SpaceX星链互联网卫星星座的组成部分,于2020年1月29日发射升空,归属美国太空探索技术公司。星链计划旨在搭建全球覆盖的低轨卫星互联网,该卫星承担为全球偏远地区、高需求区域提供高速低延迟网络接入服务任务,是星链星座早期部署组网中的重要卫星节点。

Basic Information
目录编号:
45065
目录名称:
STARLINK-1139
国际标识:
2020-006X
轨道中心:
EARTH
卫星名称:
星链-1139
卫星全名:
星链-1139 (STARLINK-1139 )
卫星状态:
已陨落 最后检测时间 2024-12-05
发射日期:
2020-01-29 UTC
国别 :
美国 (US)
星等 :
--
Orbit Information
数据来源 国际轨道数据
星历时间: 2024-12-05T11:24:28+0800
轨道信息已过期556天
半长轴: 6519.905km
偏心率: 0.000368
轨道倾角: 53.011°
近地点辐角 339.382°
升交点赤经 60.445°
平近点角 124.461°
近地点: 139.37km
远地点: 144.17km
周期: 87.322分钟
每日圈数: 16.49077
Detailed Information
固有亮度:
5
最大亮度:
2.5
卫星平台:
Starlink V1.0
覆盖范围:
全球
运营商:
太空探索技术公司
运营商所在国:
美国
制造商(研发单位):
太空探索技术公司
制造商所在国:
美国
使用方式:
暂无
Satellite Introduction
星链(Starlink)计划是由太空探索技术公司(SpaceX)提出的一个巨型低轨卫星互联网星座项目,计划在2019年至2024年间在太空搭建由约1.2万颗卫星组成的“星链”网络,其中1584颗将部署在地球上空550千米处的近地轨道,并从2020年开始工作。该卫星仍在工作。